When you browse on this site, cookies collect data to enhance your experience and personalize the content and advertising you see.
Visit our Privacy Policy to learn more. By continuing to use the site, you agree to this use of cookies and data.
  • In Hungary
  • List of Countries
  • For 7 days
  • Water Temperature
  • Weather Map
  • News
  • Weather Widgets
  • user-avatar
    Login

    Hourly Weather Lubiechowa

    Today, 12 November, Tuesday

    Time Temperature Precipitation Wind Pressure Humidity
    00:00 +3°C° 0 mm 3 mps 727 mmHg 86%
    01:00 +3°C° 0 mm 3 mps 726 mmHg 87%
    02:00 +5°C° 0 mm 2 mps 726 mmHg 87%
    03:00 +5°C° 0 mm 2 mps 726 mmHg 88%
    04:00 +5°C° 0 mm 2 mps 726 mmHg 88%
    05:00 +5°C° 0 mm 2 mps 726 mmHg 88%
    06:00 +4°C° 0 mm 2 mps 726 mmHg 89%
    07:00 +4°C° 0 mm 2 mps 727 mmHg 89%
    08:00 +4°C° 0.1 mm 2 mps 727 mmHg 87%
    09:00 +5°C° 0.1 mm 1 mps 727 mmHg 86%
    10:00 +6°C° 0.1 mm 1 mps 727 mmHg 84%
    11:00 +6°C° 0.2 mm 1 mps 727 mmHg 85%
    12:00 +6°C° 0.2 mm 1 mps 727 mmHg 86%
    13:00 +6°C° 0.2 mm 1 mps 727 mmHg 87%
    14:00 +6°C° 0.2 mm 1 mps 727 mmHg 89%
    15:00 +6°C° 0.2 mm 1 mps 727 mmHg 91%
    16:00 +5°C° 0.2 mm 1 mps 726 mmHg 93%
    17:00 +5°C° 0.2 mm 1 mps 726 mmHg 94%
    18:00 +5°C° 0.2 mm 1 mps 726 mmHg 94%
    19:00 +5°C° 0.2 mm 1 mps 726 mmHg 94%
    20:00 +5°C° 0.7 mm 1 mps 726 mmHg 95%
    21:00 +5°C° 0.7 mm 1 mps 726 mmHg 95%
    22:00 +5°C° 0.7 mm 1 mps 725 mmHg 96%
    23:00 +5°C° 1.2 mm 1 mps 725 mmHg 96%

    Tomorrow, 13 November, Wednesday

    Time Temperature Precipitation Wind Pressure Humidity
    00:00 +4°C° 1.2 mm 2 mps 725 mmHg 96%
    01:00 +4°C° 1.2 mm 2 mps 725 mmHg 96%
    02:00 +3°C° 0.4 mm 2 mps 724 mmHg 96%
    03:00 +3°C° 0.4 mm 2 mps 724 mmHg 96%
    04:00 +3°C° 0.4 mm 2 mps 724 mmHg 95%
    05:00 +4°C° 0.2 mm 1 mps 724 mmHg 96%
    06:00 +4°C° 0.2 mm 1 mps 723 mmHg 96%
    07:00 +4°C° 0.2 mm 1 mps 723 mmHg 96%
    08:00 +4°C° 0.1 mm 1 mps 723 mmHg 96%
    09:00 +4°C° 0.1 mm 1 mps 723 mmHg 95%
    10:00 +5°C° 0.1 mm 1 mps 723 mmHg 95%
    11:00 +5°C° 0.3 mm 1 mps 723 mmHg 95%
    12:00 +5°C° 0.3 mm 1 mps 723 mmHg 95%
    13:00 +5°C° 0.3 mm 1 mps 723 mmHg 95%
    14:00 +5°C° 0.3 mm 1 mps 723 mmHg 96%
    15:00 +5°C° 0.3 mm 1 mps 723 mmHg 96%
    16:00 +5°C° 0.3 mm 1 mps 723 mmHg 96%
    17:00 +4°C° 1.1 mm 2 mps 723 mmHg 96%
    18:00 +3°C° 1.1 mm 2 mps 723 mmHg 96%
    19:00 +3°C° 1.1 mm 2 mps 723 mmHg 96%
    20:00 +3°C° 1.8 mm 2 mps 723 mmHg 96%
    21:00 +3°C° 1.8 mm 2 mps 724 mmHg 97%
    22:00 +3°C° 1.8 mm 2 mps 724 mmHg 97%
    23:00 +2°C° 0.3 mm 3 mps 724 mmHg 96%

    Day after tomorrow, 14 November, Thursday

    Time Temperature Precipitation Wind Pressure Humidity
    00:00 +2°C° 0.3 mm 3 mps 725 mmHg 96%
    01:00 +2°C° 0.3 mm 3 mps 725 mmHg 96%
    02:00 +3°C° 0 mm 2 mps 725 mmHg 95%
    03:00 +4°C° 0 mm 1 mps 725 mmHg 95%
    04:00 +4°C° 0 mm 1 mps 726 mmHg 94%
    05:00 +3°C° 0 mm 1 mps 726 mmHg 93%
    06:00 +3°C° 0 mm 1 mps 726 mmHg 93%
    07:00 +3°C° 0 mm 1 mps 727 mmHg 92%
    08:00 +4°C° 0 mm 1 mps 727 mmHg 89%
    09:00 +4°C° 0 mm 1 mps 727 mmHg 87%
    10:00 +4°C° 0 mm 2 mps 727 mmHg 84%
    11:00 +5°C° 0 mm 2 mps 727 mmHg 83%
    12:00 +6°C° 0 mm 2 mps 727 mmHg 83%
    13:00 +5°C° 0 mm 3 mps 727 mmHg 82%
    14:00 +5°C° 0 mm 3 mps 727 mmHg 85%
    15:00 +5°C° 0 mm 3 mps 727 mmHg 88%
    16:00 +4°C° 0 mm 3 mps 726 mmHg 92%
    17:00 +4°C° 0 mm 3 mps 726 mmHg 92%
    18:00 +5°C° 0 mm 3 mps 726 mmHg 93%
    19:00 +5°C° 0 mm 3 mps 726 mmHg 94%
    20:00 +5°C° 0 mm 3 mps 726 mmHg 95%
    21:00 +5°C° 0 mm 3 mps 726 mmHg 96%
    22:00 +5°C° 0 mm 3 mps 725 mmHg 96%
    23:00 +6°C° 0 mm 4 mps 725 mmHg 97%

    15 November, Friday

    Time Temperature Precipitation Wind Pressure Humidity
    00:00 +6°C° 0 mm 4 mps 725 mmHg 97%
    01:00 +6°C° 0 mm 4 mps 725 mmHg 97%
    02:00 +6°C° 0 mm 4 mps 724 mmHg 96%
    03:00 +6°C° 0 mm 4 mps 724 mmHg 95%
    04:00 +6°C° 0 mm 4 mps 724 mmHg 95%
    05:00 +6°C° 0 mm 5 mps 723 mmHg 94%
    06:00 +6°C° 0 mm 5 mps 723 mmHg 93%
    07:00 +6°C° 0 mm 5 mps 723 mmHg 92%
    08:00 +8°C° 0 mm 5 mps 723 mmHg 87%
    09:00 +9°C° 0 mm 5 mps 723 mmHg 83%
    10:00 +10°C° 0 mm 5 mps 724 mmHg 78%
    11:00 +11°C° 0 mm 6 mps 723 mmHg 75%
    12:00 +12°C° 0 mm 7 mps 723 mmHg 71%
    13:00 +14°C° 0 mm 7 mps 723 mmHg 68%
    14:00 +12°C° 0 mm 7 mps 723 mmHg 71%
    15:00 +11°C° 0 mm 6 mps 723 mmHg 73%
    16:00 +10°C° 0 mm 6 mps 723 mmHg 76%
    17:00 +10°C° 0 mm 5 mps 723 mmHg 79%
    18:00 +10°C° 0 mm 4 mps 724 mmHg 82%
    19:00 +10°C° 0 mm 4 mps 724 mmHg 84%
    20:00 +10°C° 0 mm 4 mps 725 mmHg 84%
    21:00 +10°C° 0 mm 4 mps 725 mmHg 85%
    22:00 +10°C° 0 mm 4 mps 726 mmHg 85%
    23:00 +10°C° 0 mm 3 mps 726 mmHg 85%

    16 November, Saturday

    Time Temperature Precipitation Wind Pressure Humidity
    00:00 +10°C° 0 mm 3 mps 726 mmHg 84%
    01:00 +10°C° 0 mm 3 mps 727 mmHg 83%
    02:00 +10°C° 0 mm 3 mps 727 mmHg 85%
    03:00 +9°C° 0 mm 3 mps 727 mmHg 86%
    04:00 +9°C° 0 mm 3 mps 727 mmHg 88%
    05:00 +8°C° 0 mm 2 mps 728 mmHg 88%
    06:00 +7°C° 0 mm 2 mps 728 mmHg 88%
    07:00 +8°C° 0 mm 1 mps 728 mmHg 88%
    08:00 +8°C° 0 mm 1 mps 729 mmHg 85%
    09:00 +8°C° 0 mm 1 mps 729 mmHg 82%
    10:00 +9°C° 0 mm 1 mps 730 mmHg 80%
    11:00 +9°C° 0 mm 1 mps 730 mmHg 80%
    12:00 +9°C° 0 mm 1 mps 730 mmHg 81%
    13:00 +9°C° 0 mm 2 mps 730 mmHg 81%
    14:00 +9°C° 0 mm 2 mps 730 mmHg 83%
    15:00 +8°C° 0 mm 2 mps 730 mmHg 85%
    16:00 +9°C° 0 mm 1 mps 730 mmHg 87%
    17:00 +9°C° 0 mm 1 mps 730 mmHg 88%
    18:00 +9°C° 0 mm 1 mps 730 mmHg 90%
    19:00 +9°C° 0 mm 1 mps 730 mmHg 91%
    20:00 +8°C° 0 mm 2 mps 731 mmHg 91%
    21:00 +9°C° 0 mm 2 mps 731 mmHg 91%
    22:00 +9°C° 0 mm 2 mps 731 mmHg 91%
    23:00 +9°C° 0.1 mm 3 mps 730 mmHg 91%

    17 November, Sunday

    Time Temperature Precipitation Wind Pressure Humidity
    00:00 +9°C° 0.1 mm 3 mps 730 mmHg 91%
    01:00 +10°C° 0.1 mm 3 mps 730 mmHg 91%
    02:00 +9°C° 0 mm 3 mps 730 mmHg 91%
    03:00 +9°C° 0 mm 3 mps 729 mmHg 91%
    04:00 +9°C° 0 mm 3 mps 729 mmHg 91%
    05:00 +9°C° 0 mm 3 mps 729 mmHg 90%
    06:00 +9°C° 0 mm 3 mps 728 mmHg 89%
    07:00 +8°C° 0 mm 4 mps 728 mmHg 88%
    08:00 +10°C° 0 mm 4 mps 728 mmHg 84%
    09:00 +10°C° 0 mm 4 mps 728 mmHg 80%
    10:00 +10°C° 0 mm 5 mps 728 mmHg 76%
    11:00 +12°C° 0 mm 5 mps 728 mmHg 74%
    12:00 +12°C° 0 mm 5 mps 727 mmHg 72%
    13:00 +13°C° 0 mm 5 mps 727 mmHg 70%
    14:00 +12°C° 0 mm 5 mps 726 mmHg 74%
    15:00 +12°C° 0 mm 4 mps 726 mmHg 77%
    16:00 +11°C° 0 mm 4 mps 726 mmHg 81%
    17:00 +10°C° 0 mm 5 mps 726 mmHg 81%
    18:00 +9°C° 0 mm 5 mps 725 mmHg 80%
    19:00 +9°C° 0 mm 6 mps 725 mmHg 80%
    20:00 +9°C° 0 mm 6 mps 725 mmHg 80%
    21:00 +9°C° 0 mm 6 mps 725 mmHg 79%
    22:00 +9°C° 0 mm 6 mps 725 mmHg 79%
    23:00 +9°C° 0 mm 6 mps 725 mmHg 79%
    Show more